Vyhledávání knížek ve školní knihovně SVZS Kladno

Zadejte hledané slovo (autor, dílo, část názvu a pod.)

Vypsány výsledky od: 8601 až 8650. Celkem nalezeno 9338 výsledků.

č. Poř.č. Signatura Spisovatel Název knihy Počet svazků Nakladatel Rok vyd. Cena Jazyk Číslo dokl. Aktualizováno
8602 17305 616.08 Pokorná Efektivní komunikační techniky v ošetřov 1 NCONZO (Brno) 2008 121.00 cze 01.06.2010
8603 17306 15 Živný Petr Co může říci písmo - grafologie 1 Horizont () 1991 0.00 cze 01.06.2010
8604 17307 15 Matějček Zd. Po dobrém, nebo po zlém 1 Portál (Praha) 1994 0.00 cze 01.06.2010
8605 17308 15.37 Prekopová Jiřina Malý tyran 1 Portál (Praha) 1993 0.00 cze 01.06.2010
8606 17309 15.61 Honzák Radkin I v nemoci si buď přítelem 1 Avicenum (Praha) 1989 11.00 cze 01.06.2010
8607 17310 15 Lanster Peter Testy osobností 1 Svoboda (Praha) 1996 0.00 cze 01.06.2010
8608 17311 15.37 Lynch, Kidd Cvičení pro rozvoj řeči 1 Portál (Praha) 2002 179.00 cze 08.06.2010
8609 17312 15.37 Strassmeier W. 260 cvičení pro děti raného věku 1 Portál (Praha) 1996 210.00 cze 08.06.2010
8610 17313 615.851.3 Kolář Pavel Rehabilitace v klinické praxi 1 Galén (Praha) 2010 1350.00 cze 08.06.2010
8611 17314 943.7 Navara, Albrecht Abeceda komunismu + DVD 1 Host (Brno) 2010 210.00 cze 08.06.2010
8612 17315 943.7 Navara, Albrecht Abeceda komunismu + DVD 1 Host (Brno) 2010 210.00 cze 08.06.2010
8613 17316 943.7 Navara, Albrecht Abeceda komunismu + DVD 1 Host (Brno) 2010 210.00 cze 08.06.2010
8614 17317 376 Bednářová, Šmardová Diagnostika dítěte předškolního věku 1 Press (Brno) 2007 366.00 cze 08.06.2010
8615 17318 376 Lauberová, Miozgová Předškoláci ve školce 1 Portál (Praha) 2009 154.00 cze 08.06.2010
8616 17319 376 Pávková, Hájek, Hofbauer... Pedagogika volného času 1 Portál (Praha) 2008 285.00 cze 08.06.2010
8617 17320 15.37 Pražská skupina školní etnografie Psychický vývoj dítěte od 1 - 5 třídy 1 Karolinum (Praha) 2005 360.00 cze 08.06.2010
8618 17321 15.37 Mertin, Gillernová Psychologie pro učitelky mateřské školy 1 Portál (Praha) 2010 285.00 cze 08.06.2010
8619 17322 618.1 Uzel, Kovář Antikoncepční otazníky 1 CAT Publiching, Kovář Petr (Ostrava) 2010 214.00 cze 19.10.2010
8620 17323 616.98 Beneš Jiří a kol. Beneš Jiří a kol. 1 Beneš Jiří a kol. () 2009 1500.00 cze 21.09.2012
8621 17324 616.03 Dítě Petr Vnitřní lékařství 1 Galén (Praha) 2007 1200.00 cze 19.10.2010
8622 17325 612.3 Kadlec, Melzoch Co byste měli vědět o výrobě potravin 1 Key Publishing s.r.o. (Ostrava) 2009 650.00 cze 19.10.2010
8623 17326 15.37 Fontana David Psychologie ve školní praxi 1 Portál (Praha) 2010 397.00 cze 19.10.2010
8624 17327 611 Dylevský Ivan Základy anatomie 1 Triton (Praha) 2006 399.00 cze 19.10.2010
8625 17328 612.3 Schleif Thilo Histaminová intolerance 1 Galén (Praha) 2009 200.00 cze 19.10.2010
8626 17329 15.37 Goetz, Uhlíková ADHD, porucha pozornosti... 1 Galén (Praha) 2009 190.00 cze 19.10.2010
8627 17330 54 Pumpr, Adamec Chemie - základy přírodovědného vzdělává 1 Fortuna (Praha) 2008 50.00 cze 04.01.2011
8628 17331 802.0 Oxenden, Latham- Koenig New English File - Teacher´s Book + CD 1 Oxford University Press () 2007 0.00 eng 04.01.2011
8629 17332 802.0 Oxenden, ..... New English File -Workbook +CD 1 Oxford University Press () 2005 0.00 eng ? 04.01.2011
8630 17333 802.0 Oxenden, ..... New English File - Student´s Book 1 Oxford University Press () 2008 0.00 eng 04.01.2011
8631 17334 802.0 Oxenden, .... New English File - Elementary Teacher´s 1 Oxford University Press () 2007 0.00 eng 04.01.2011
8632 17336 802.0 Oxenden, .... New English File, Elementary Student´s 1 Oxford University Press () 2007 0.00 eng 05.01.2011
8633 17338 802.0 Oxenden, ... New English File, Elementary Workbook + 1 Oxford University Press () 2004 0.00 eng 10.01.2011
8634 17339 943.7 Svitáková Jindra Osudové roky české státnosti 1 Asociace nositelů legionářských tradic, (Praha) 2010 104.00 cze 253/2010 10.01.2011
8635 17340 943.7 Svitáková Jitka Osudové roky české státnosti 1 Asociace nositelů legionářských tradic (Praha) 2010 104.00 cze 10.01.2011
8636 17431 34 /31 Hajzlerová Irena Spisová služba ve školské praxi 1 Pavera Antonín - Paris (Karviná) 2010 300.00 cze 10.01.2011
8637 17342 616.08 Tóthová Valerie Zabezpečení efekt. péče o vietnam. a čín 1 Triton (Praha) 2010 299.00 cze 10.01.2011
8638 17343 616.006/ 616.08 Anne-Mei Theová Paliativní péče a komunikace 1 Společnost pro odbornou literaturu (Brno) 2007 295.00 cze 10.01.2011
8639 17344 616.006/616.08 Payneová, Seymourová, Ingletonová Principy a praxe paliativní péče 1 Společnost pro odbornou literaturu (Brno) 2007 695.00 cze 447/2010 10.01.2011
8640 17345 616.08 Špatenková, Králová Základní otázky komunikace 1 Galén (Praha) 2009 190.00 cze 10.01.2011
8641 17346 616.03 Češka Richard a kol. INTERNA 1 Triton (Praha) 2010 1499.00 cze 10.01.2011
8642 17347 15 Goetz, Uhlíková ADHD porucha pozornosti s hyperaktivitou 1 Galén (Praha) 2009 190.00 cze 10.01.2011
8643 17348 616.89 Platznerová A. Sebepoškozování.... 1 Galén (Praha) 2009 250.00 cze 10.01.2011
8644 17349 376 Kutálková D. Průvodce vývojem dětské řeči 1 Galén (Praha) 2009 220.00 cze 10.01.2011
8645 17350 15 Drtílková, Šerý Hyperkinetická porucha ADHD 1 galén (Praha) 2007 390.00 cze 10.01.2011
8646 17351 17/ 616.08 Haškovcová Informovaný souhlas, proč a jak 1 Galén (Praha) 2007 190.00 cze 10.01.2011
8647 17352 616.08 Assdullah Zharfbin Lékařem v Saudské Arabii 1 Galén (Praha) 2008 150.00 cze 10.01.2011
8648 17353 616.053.9 Haškovcová Helena Fenomén stáří 1 Havlíček BRAIN TEAM (Praha) 2010 420.00 cze 10.01.2011
8649 17354 57 Kočárek Ed. Biologie člověka 1 1 Scientia (Praha) 2010 397.00 cze 10.01.2011
8650 17355 57 Závodská Radka Biologie buněk 1 Scientia (Praha) 2006 315.00 cze 10.01.2011
8651 17356 57 Kočárek Ed. Genetika 1 Scientia (Praha) 2008 368.00 cze 10.01.2011
123456789101112131415161718192021222324252627282930313233343536373839404142434445464748495051525354555657585960616263646566676869707172737475767778798081828384858687888990919293949596979899100101102103104105106107108109110111112113114115116117118119120121122123124125126127128129130131132133134135136137138139140141142143144145146147148149150151152153154155156157158159160161162163164165166167168169170171172173174175176177178179180181182183184185186187Všechny